Regional Weather Roundup
Issued by NWS

Home | Current Version | Previous Version | Graphics & Text | Print | Product List | Glossary On
Versions: 1 2 3 4 5 6 7 8 9 10 11 12 13 14 15 16 17 18 19 20 21 22 23 24 25 26 27
000
ASUS45 KTFX 231710
RWRMT
MONTANA REGIONAL WEATHER ROUNDUP
NATIONAL WEATHER SERVICE GREAT FALLS MT
1100 AM MDT SUN JUL 23 2017

NOTE: "FAIR" INDICATES FEW OR NO CLOUDS BELOW 12000 FEET WITH NO
SIGNIFICANT WEATHER AND/OR OBSTRUCTIONS TO VISIBILITY.

MTZ001>007-043-231800-
WEST OF THE DIVIDE

CITY           SKY/WX    TMP DP  RH WIND       PRES   REMARKS
KALISPELL        N/A     77  51  40 SE7       30.02F
MISSOULA         N/A     74  46  36 VRB5      30.06F
BUTTE          SUNNY     76  41  28 CALM      30.17F
MULLAN PASS      N/A     69  43  38 CALM      30.21S
ANACONDA         N/A     75  45  33 NE3       30.13F
DEER LODGE       N/A     73  45  35 CALM      30.15F
EUREKA           N/A     82  48  30 MISG      29.97F
HAMILTON         N/A     73  46  38 N3        30.08F
LIBBY            N/A     75  48  38 N3        29.98F
PLAINS           N/A     77  51  39 CALM      30.02F
$$

MTZ008-052>055-231800-
SOUTHWEST MONTANA

CITY           SKY/WX    TMP DP  RH WIND       PRES   REMARKS
BOZEMAN        SUNNY     77  47  34 N5        30.11F
DILLON         SUNNY     72  44  36 CALM      30.15F
W YELLOWSTONE  CLOUDY    66  37  34 CALM      30.29F
ENNIS          SUNNY     75  34  22 CALM      30.21F
$$

MTZ009-010-012-014-046-048-049-054-231800-
EAST SLOPES AND CENTRAL MONTANA

CITY           SKY/WX    TMP DP  RH WIND       PRES   REMARKS
CUT BANK         N/A     84  43  23 W10       30.01F
GREAT FALLS    SUNNY     84  40  21 SE8       30.02F
MALMSTROM AFB  SUNNY     83  42  23 NE5       30.01F
HELENA         SUNNY     79  47  32 NE5       30.06F
CHOTEAU          N/A     86  43  22 CALM      30.04F
$$

MTZ011-013-016-021-045-047-050-051-231800-
NORTH CENTRAL MONTANA

CITY           SKY/WX    TMP DP  RH WIND       PRES   REMARKS
HAVRE          SUNNY     84  44  24 VRB7      29.96F
LEWISTOWN      SUNNY     83  38  20 W5        30.07F
N BAR RANCH      N/A     86  34  15 S12       30.11F
CHINOOK          N/A     82  46  28 SW5       29.95F
$$

MTZ017>020-022>027-061-062-231800-
NORTHEAST MONTANA

CITY           SKY/WX    TMP DP  RH WIND       PRES   REMARKS
GLASGOW        SUNNY     82  46  28 SE9       29.98F
JORDAN           N/A     91  38  15 VRB6      29.98
SIDNEY         SUNNY     82  53  36 SE7       30.03F
WOLF POINT     SUNNY     87  46  24 SE3       29.99F
MALTA          SUNNY     88  43  20 W5        29.94F
PLENTYWOOD       N/A     81  48  32 CALM      30.02F
POPLAR           N/A     84  48  28 SE10      30.00F
SCOBEY           N/A     82  48  30 SE10      30.00F
$$

MTZ028>42-056>058-231800-
SOUTHCENTRAL AND SOUTHEAST MONTANA

CITY           SKY/WX    TMP DP  RH WIND       PRES   REMARKS
BAKER          SUNNY     87  41  19 E5        30.07F
BILLINGS       SUNNY     77  41  27 SW8       30.06F
LIVINGSTON     SUNNY     80  40  23 VRB5      30.11F
MILES CITY     SUNNY     87  41  19 SE12      30.02F
BIG TIMBER     SUNNY     81  39  22 VRB3      30.12F
EKALAKA          N/A     84  42  22 E8        30.07F
FORSYTH          N/A     90  37  15 E6        30.01F
LAUREL           N/A     79  40  24 S3        30.05F
$$

REGIONAL REPORTS...DAKOTAS

CITY           SKY/WX    TMP DP  RH WIND       PRES   REMARKS
WILLISTON      SUNNY     82  53  36 SE7       30.03F
MINOT          SUNNY     76  52  43 VRB5      30.05F
DICKINSON      SUNNY     81  52  36 VRB3      30.06F
BEACH            N/A     81  45  28 SE7       30.10F
CROSBY           N/A     79  54  41 S9        30.04S
TIOGA            N/A     77  52  41 S6        30.07F
WATFORD CITY     N/A     81  50  34 VRB6      30.04F
BISMARCK       SUNNY     76  55  48 CALM      30.08F
GRAND FORKS    PTSUNNY   70  62  76 N8        30.01S
FARGO          CLOUDY    68  61  78 NW8       30.02R
BUFFALO SD       N/A     85  48  27 S6        30.03F
RAPID CITY     SUNNY     82  44  26 SE9       30.12S
$$

REGIONAL REPORTS...WYOMING/IDAHO/WASHINGTON

CITY           SKY/WX    TMP DP  RH WIND       PRES   REMARKS
GILLETTE       SUNNY     85  41  21 SE8       30.13S
SHERIDAN       SUNNY     80  42  25 CALM      30.10F
BUFFALO WY     SUNNY     83  31  15 CALM      30.17S
CODY           SUNNY     81  33  17 CALM      30.17F
YELLOWSTONE LA   N/A     64  39  39 SE3       30.39F
IDAHO FALLS    CLOUDY    71  46  40 VRB6G17   30.15F
BOISE            N/A     83  43  24 CALM      30.02F
SPOKANE          N/A     82  50  32 S5        29.99F
$$

REGIONAL REPORTS...ALBERTA

CITY           SKY/WX    TMP DP  RH WIND       PRES   REMARKS
EDMONTON       LGT RAIN  63  54  72 N8        29.93F
CALGARY        MOSUNNY   77  52  41 VRB2      29.92F
LETHBRIDGE     MOSUNNY   86  48  26 W17G23    29.93F
MEDICINE HAT   MOSUNNY   81  54  39 S7        29.91F
WATERTON GATE    N/A     77  48  36 SW16G23     N/A
CARDSTON         N/A     84  46  26 SW3         N/A
MILK RIVER       N/A     86  45  23 SW7         N/A
ONEFOUR          N/A     84  46  26 W7          N/A
$$

REGIONAL REPORTS...SASKATCHEWAN

CITY           SKY/WX    TMP DP  RH WIND       PRES   REMARKS
SWIFT CURRENT  SUNNY     82  50  32 SW9G17    29.93F
REGINA         MOSUNNY   81  52  36 S10G17    29.97F
SASKATOON      PTSUNNY   73  57  56 S8        29.91F
CYPRESS HILLS    N/A     79  45  29 W6          N/A
VAL MARIE        N/A     82  43  24 S10         N/A
ROCKGLEN         N/A     81  45  28 S15G21      N/A
ASSINIBOIA       N/A     72  54  53 N14         N/A
$$




USA.gov is the U.S. government's official web portal to all federal, state and local government web resources and services.